#Datum;Uhrzeit;WR;Pac;DaySum;Status;WR;Pac;DaySum;Status;Pdc1;Udc;Temp;WR;Pac;DaySum;Status;Pdc1;Udc;Temp;WR;Pac;DaySum;Status;Pdc1;Udc;Temp;WR;Pac;DaySum;Status;Pdc1;Pdc2;Udc1;Udc2;Temp;WR;Pac;DaySum;Status;Pdc1;Pdc2;Udc1;Udc2;Temp;WR;Pac;DaySum;Status;Pdc1;Udc;Temp;WR;Pac;DaySum;Status;Pdc1;Udc;Temp;WR;Pac;DaySum;Status;Pdc1;Udc;Temp
27.11.17;23:55:00;1;327;8572;0;2;0;6450;0;0;0;0;3;0;4173;0;0;0;0;4;0;5437;0;0;0;0;5;0;14625;0;0;0;0;0;0;6;0;11074;0;0;0;0;0;0;7;0;9399;0;0;0;0;8;0;9235;0;0;0;0;9;0;4943;0;0;0;0
27.11.17;23:50:00;1;329;8544;0;2;0;6450;0;0;0;0;3;0;4173;0;0;0;0;4;0;5437;0;0;0;0;5;0;14625;0;0;0;0;0;0;6;0;11074;0;0;0;0;0;0;7;0;9399;0;0;0;0;8;0;9235;0;0;0;0;9;0;4943;0;0;0;0
27.11.17;23:45:00;1;291;8517;0;2;0;6450;0;0;0;0;3;0;4173;0;0;0;0;4;0;5437;0;0;0;0;5;0;14625;0;0;0;0;0;0;6;0;11074;0;0;0;0;0;0;7;0;9399;0;0;0;0;8;0;9235;0;0;0;0;9;0;4943;0;0;0;0
27.11.17;23:40:00;1;284;8492;0;2;0;6450;0;0;0;0;3;0;4173;0;0;0;0;4;0;5437;0;0;0;0;5;0;14625;0;0;0;0;0;0;6;0;11074;0;0;0;0;0;0;7;0;9399;0;0;0;0;8;0;9235;0;0;0;0;9;0;4943;0;0;0;0
27.11.17;23:35:00;1;285;8468;0;2;0;6450;0;0;0;0;3;0;4173;0;0;0;0;4;0;5437;0;0;0;0;5;0;14625;0;0;0;0;0;0;6;0;11074;0;0;0;0;0;0;7;0;9399;0;0;0;0;8;0;9235;0;0;0;0;9;0;4943;0;0;0;0
27.11.17;23:30:00;1;285;8444;0;2;0;6450;0;0;0;0;3;0;4173;0;0;0;0;4;0;5437;0;0;0;0;5;0;14625;0;0;0;0;0;0;6;0;11074;0;0;0;0;0;0;7;0;9399;0;0;0;0;8;0;9235;0;0;0;0;9;0;4943;0;0;0;0
27.11.17;23:25:00;1;284;8421;0;2;0;6450;0;0;0;0;3;0;4173;0;0;0;0;4;0;5437;0;0;0;0;5;0;14625;0;0;0;0;0;0;6;0;11074;0;0;0;0;0;0;7;0;9399;0;0;0;0;8;0;9235;0;0;0;0;9;0;4943;0;0;0;0
27.11.17;23:20:00;1;285;8397;0;2;0;6450;0;0;0;0;3;0;4173;0;0;0;0;4;0;5437;0;0;0;0;5;0;14625;0;0;0;0;0;0;6;0;11074;0;0;0;0;0;0;7;0;9399;0;0;0;0;8;0;9235;0;0;0;0;9;0;4943;0;0;0;0
27.11.17;23:15:00;1;284;8373;0;2;0;6450;0;0;0;0;3;0;4173;0;0;0;0;4;0;5437;0;0;0;0;5;0;14625;0;0;0;0;0;0;6;0;11074;0;0;0;0;0;0;7;0;9399;0;0;0;0;8;0;9235;0;0;0;0;9;0;4943;0;0;0;0
27.11.17;23:10:00;1;285;8349;0;2;0;6450;0;0;0;0;3;0;4173;0;0;0;0;4;0;5437;0;0;0;0;5;0;14625;0;0;0;0;0;0;6;0;11074;0;0;0;0;0;0;7;0;9399;0;0;0;0;8;0;9235;0;0;0;0;9;0;4943;0;0;0;0
27.11.17;23:05:00;1;292;8325;0;2;0;6450;0;0;0;0;3;0;4173;0;0;0;0;4;0;5437;0;0;0;0;5;0;14625;0;0;0;0;0;0;6;0;11074;0;0;0;0;0;0;7;0;9399;0;0;0;0;8;0;9235;0;0;0;0;9;0;4943;0;0;0;0
27.11.17;23:00:00;1;331;8301;0;2;0;6450;0;0;0;0;3;0;4173;0;0;0;0;4;0;5437;0;0;0;0;5;0;14625;0;0;0;0;0;0;6;0;11074;0;0;0;0;0;0;7;0;9399;0;0;0;0;8;0;9235;0;0;0;0;9;0;4943;0;0;0;0
27.11.17;22:55:00;1;327;8273;0;2;0;6450;0;0;0;0;3;0;4173;0;0;0;0;4;0;5437;0;0;0;0;5;0;14625;2;0;0;0;0;0;6;0;11074;2;0;0;0;0;0;7;0;9399;0;0;0;0;8;0;9235;0;0;0;0;9;0;4943;0;0;0;0
27.11.17;22:50:00;1;336;8246;0;2;0;6450;0;0;0;0;3;0;4173;0;0;0;0;4;0;5437;0;0;0;0;5;0;14625;2;0;0;0;0;0;6;0;11074;2;0;0;0;0;0;7;0;9399;0;0;0;0;8;0;9235;0;0;0;0;9;0;4943;0;0;0;0
27.11.17;22:45:00;1;439;8217;0;2;0;6450;0;0;0;0;3;0;4173;0;0;0;0;4;0;5437;0;0;0;0;5;0;14625;2;0;0;0;0;0;6;0;11074;2;0;0;0;0;0;7;0;9399;0;0;0;0;8;0;9235;0;0;0;0;9;0;4943;0;0;0;0
27.11.17;22:40:00;1;474;8179;0;2;0;6450;0;0;0;0;3;0;4173;0;0;0;0;4;0;5437;0;0;0;0;5;0;14625;2;0;0;0;0;0;6;0;11074;2;0;0;0;0;0;7;0;9399;0;0;0;0;8;0;9235;0;0;0;0;9;0;4943;0;0;0;0
27.11.17;22:35:00;1;434;8140;0;2;0;6450;0;0;0;0;3;0;4173;0;0;0;0;4;0;5437;0;0;0;0;5;0;14625;2;0;0;0;0;0;6;0;11074;2;0;0;0;0;0;7;0;9399;0;0;0;0;8;0;9235;0;0;0;0;9;0;4943;0;0;0;0
27.11.17;22:30:00;1;507;8102;0;2;0;6450;0;0;0;0;3;0;4173;0;0;0;0;4;0;5437;0;0;0;0;5;0;14625;2;0;0;0;0;0;6;0;11074;2;0;0;0;0;0;7;0;9399;0;0;0;0;8;0;9235;0;0;0;0;9;0;4943;0;0;0;0
27.11.17;22:25:00;1;508;8060;0;2;0;6450;0;0;0;0;3;0;4173;0;0;0;0;4;0;5437;0;0;0;0;5;0;14625;2;0;0;0;0;0;6;0;11074;2;0;0;0;0;0;7;0;9399;0;0;0;0;8;0;9235;0;0;0;0;9;0;4943;0;0;0;0
27.11.17;22:20:00;1;515;8017;0;2;0;6450;0;0;0;0;3;0;4173;0;0;0;0;4;0;5437;0;0;0;0;5;0;14625;2;0;0;0;0;0;6;0;11074;2;0;0;0;0;0;7;0;9399;0;0;0;0;8;0;9235;0;0;0;0;9;0;4943;0;0;0;0
27.11.17;22:15:00;1;435;7974;0;2;0;6450;0;0;0;0;3;0;4173;0;0;0;0;4;0;5437;0;0;0;0;5;0;14625;2;0;0;0;0;0;6;0;11074;2;0;0;0;0;0;7;0;9399;0;0;0;0;8;0;9235;0;0;0;0;9;0;4943;0;0;0;0
27.11.17;22:10:00;1;409;7938;0;2;0;6450;0;0;0;0;3;0;4173;0;0;0;0;4;0;5437;0;0;0;0;5;0;14625;2;0;0;0;0;0;6;0;11074;2;0;0;0;0;0;7;0;9399;0;0;0;0;8;0;9235;0;0;0;0;9;0;4943;0;0;0;0
27.11.17;22:05:00;1;412;7904;0;2;0;6450;0;0;0;0;3;0;4173;0;0;0;0;4;0;5437;0;0;0;0;5;0;14625;2;0;0;0;0;0;6;0;11074;2;0;0;0;0;0;7;0;9399;0;0;0;0;8;0;9235;0;0;0;0;9;0;4943;0;0;0;0
27.11.17;22:00:00;1;492;7867;0;2;0;6450;0;0;0;0;3;0;4173;0;0;0;0;4;0;5437;0;0;0;0;5;0;14625;2;0;0;0;0;0;6;0;11074;2;0;0;0;0;0;7;0;9399;0;0;0;0;8;0;9235;0;0;0;0;9;0;4943;0;0;0;0
27.11.17;21:55:00;1;419;7826;0;2;0;6450;0;0;0;0;3;0;4173;0;0;0;0;4;0;5437;0;0;0;0;5;0;14625;2;0;0;0;0;0;6;0;11074;2;0;0;0;0;0;7;0;9399;0;0;0;0;8;0;9235;0;0;0;0;9;0;4943;0;0;0;0
27.11.17;21:50:00;1;396;7792;0;2;0;6450;0;0;0;0;3;0;4173;0;0;0;0;4;0;5437;0;0;0;0;5;0;14625;2;0;0;0;0;0;6;0;11074;2;0;0;0;0;0;7;0;9399;0;0;0;0;8;0;9235;0;0;0;0;9;0;4943;0;0;0;0
27.11.17;21:45:00;1;360;7759;0;2;0;6450;0;0;0;0;3;0;4173;0;0;0;0;4;0;5437;0;0;0;0;5;0;14625;2;0;0;0;0;0;6;0;11074;2;0;0;0;0;0;7;0;9399;0;0;0;0;8;0;9235;0;0;0;0;9;0;4943;0;0;0;0
27.11.17;21:40:00;1;354;7729;0;2;0;6450;0;0;0;0;3;0;4173;0;0;0;0;4;0;5437;0;0;0;0;5;0;14625;2;0;0;0;0;0;6;0;11074;2;0;0;0;0;0;7;0;9399;0;0;0;0;8;0;9235;0;0;0;0;9;0;4943;0;0;0;0
27.11.17;21:35:00;1;368;7699;0;2;0;6450;0;0;0;0;3;0;4173;0;0;0;0;4;0;5437;0;0;0;0;5;0;14625;2;0;0;0;0;0;6;0;11074;2;0;0;0;0;0;7;0;9399;0;0;0;0;8;0;9235;0;0;0;0;9;0;4943;0;0;0;0
27.11.17;21:30:00;1;369;7669;0;2;0;6450;0;0;0;0;3;0;4173;0;0;0;0;4;0;5437;0;0;0;0;5;0;14625;2;0;0;0;0;0;6;0;11074;2;0;0;0;0;0;7;0;9399;0;0;0;0;8;0;9235;0;0;0;0;9;0;4943;0;0;0;0
27.11.17;21:25:00;1;389;7638;0;2;0;6450;0;0;0;0;3;0;4173;0;0;0;0;4;0;5437;0;0;0;0;5;0;14625;2;0;0;0;0;0;6;0;11074;2;0;0;0;0;0;7;0;9399;0;0;0;0;8;0;9235;0;0;0;0;9;0;4943;0;0;0;0
27.11.17;21:20:00;1;460;7605;0;2;0;6450;0;0;0;0;3;0;4173;0;0;0;0;4;0;5437;0;0;0;0;5;0;14625;2;0;0;0;0;0;6;0;11074;2;0;0;0;0;0;7;0;9399;0;0;0;0;8;0;9235;0;0;0;0;9;0;4943;0;0;0;0
27.11.17;21:15:00;1;499;7566;0;2;0;6450;0;0;0;0;3;0;4173;0;0;0;0;4;0;5437;0;0;0;0;5;0;14625;2;0;0;0;0;0;6;0;11074;2;0;0;0;0;0;7;0;9399;0;0;0;0;8;0;9235;0;0;0;0;9;0;4943;0;0;0;0
27.11.17;21:10:00;1;578;7522;0;2;0;6450;0;0;0;0;3;0;4173;0;0;0;0;4;0;5437;0;0;0;0;5;0;14625;2;0;0;0;0;0;6;0;11074;2;0;0;0;0;0;7;0;9399;0;0;0;0;8;0;9235;0;0;0;0;9;0;4943;0;0;0;0
27.11.17;21:05:00;1;619;7474;0;2;0;6450;0;0;0;0;3;0;4173;0;0;0;0;4;0;5437;0;0;0;0;5;0;14625;2;0;0;0;0;0;6;0;11074;2;0;0;0;0;0;7;0;9399;0;0;0;0;8;0;9235;0;0;0;0;9;0;4943;0;0;0;0
27.11.17;21:00:00;1;618;7422;0;2;0;6450;0;0;0;0;3;0;4173;0;0;0;0;4;0;5437;0;0;0;0;5;0;14625;2;0;0;0;0;0;6;0;11074;2;0;0;0;0;0;7;0;9399;0;0;0;0;8;0;9235;0;0;0;0;9;0;4943;0;0;0;0
27.11.17;20:55:00;1;620;7371;0;2;0;6450;0;0;0;0;3;0;4173;0;0;0;0;4;0;5437;0;0;0;0;5;0;14625;2;0;0;0;0;0;6;0;11074;2;0;0;0;0;0;7;0;9399;0;0;0;0;8;0;9235;0;0;0;0;9;0;4943;0;0;0;0
27.11.17;20:50:00;1;745;7319;0;2;0;6450;0;0;0;0;3;0;4173;0;0;0;0;4;0;5437;0;0;0;0;5;0;14625;2;0;0;0;0;0;6;0;11074;2;0;0;0;0;0;7;0;9399;0;0;0;0;8;0;9235;0;0;0;0;9;0;4943;0;0;0;0
27.11.17;20:45:00;1;538;7265;0;2;0;6450;0;0;0;0;3;0;4173;0;0;0;0;4;0;5437;0;0;0;0;5;0;14625;2;0;0;0;0;0;6;0;11074;2;0;0;0;0;0;7;0;9399;0;0;0;0;8;0;9235;0;0;0;0;9;0;4943;0;0;0;0
27.11.17;20:40:00;1;583;7219;0;2;0;6450;0;0;0;0;3;0;4173;0;0;0;0;4;0;5437;0;0;0;0;5;0;14625;2;0;0;0;0;0;6;0;11074;2;0;0;0;0;0;7;0;9399;0;0;0;0;8;0;9235;0;0;0;0;9;0;4943;0;0;0;0
27.11.17;20:35:00;1;579;7171;0;2;0;6450;0;0;0;0;3;0;4173;0;0;0;0;4;0;5437;0;0;0;0;5;0;14625;2;0;0;0;0;0;6;0;11074;2;0;0;0;0;0;7;0;9399;0;0;0;0;8;0;9235;0;0;0;0;9;0;4943;0;0;0;0
27.11.17;20:30:00;1;593;7123;0;2;0;6450;0;0;0;0;3;0;4173;0;0;0;0;4;0;5437;0;0;0;0;5;0;14625;2;0;0;0;0;0;6;0;11074;2;0;0;0;0;0;7;0;9399;0;0;0;0;8;0;9235;0;0;0;0;9;0;4943;0;0;0;0
27.11.17;20:25:00;1;470;7074;0;2;0;6450;0;0;0;0;3;0;4173;0;0;0;0;4;0;5437;0;0;0;0;5;0;14625;2;0;0;0;0;0;6;0;11074;2;0;0;0;0;0;7;0;9399;0;0;0;0;8;0;9235;0;0;0;0;9;0;4943;0;0;0;0
27.11.17;20:20:00;1;468;7035;0;2;0;6450;0;0;0;0;3;0;4173;0;0;0;0;4;0;5437;0;0;0;0;5;0;14625;2;0;0;0;0;0;6;0;11074;2;0;0;0;0;0;7;0;9399;0;0;0;0;8;0;9235;0;0;0;0;9;0;4943;0;0;0;0
27.11.17;20:15:00;1;524;6996;0;2;0;6450;0;0;0;0;3;0;4173;0;0;0;0;4;0;5437;0;0;0;0;5;0;14625;2;0;0;0;0;0;6;0;11074;2;0;0;0;0;0;7;0;9399;0;0;0;0;8;0;9235;0;0;0;0;9;0;4943;0;0;0;0
27.11.17;20:10:00;1;836;6950;0;2;0;6450;0;0;0;0;3;0;4173;0;0;0;0;4;0;5437;0;0;0;0;5;0;14625;2;0;0;0;0;0;6;0;11074;2;0;0;0;0;0;7;0;9399;0;0;0;0;8;0;9235;0;0;0;0;9;0;4943;0;0;0;0
27.11.17;20:05:00;1;1109;6873;0;2;0;6450;0;0;0;0;3;0;4173;0;0;0;0;4;0;5437;0;0;0;0;5;0;14625;2;0;0;0;0;0;6;0;11074;2;0;0;0;0;0;7;0;9399;0;0;0;0;8;0;9235;0;0;0;0;9;0;4943;0;0;0;0
27.11.17;20:00:00;1;1071;6781;0;2;0;6450;0;0;0;0;3;0;4173;0;0;0;0;4;0;5437;0;0;0;0;5;0;14625;2;0;0;0;0;0;6;0;11074;2;0;0;0;0;0;7;0;9399;0;0;0;0;8;0;9235;0;0;0;0;9;0;4943;0;0;0;0
27.11.17;19:55:00;1;1070;6692;0;2;0;6450;0;0;0;0;3;0;4173;0;0;0;0;4;0;5437;0;0;0;0;5;0;14625;2;0;0;0;0;0;6;0;11074;2;0;0;0;0;0;7;0;9399;0;0;0;0;8;0;9235;0;0;0;0;9;0;4943;0;0;0;0
27.11.17;19:50:00;1;983;6604;0;2;0;6450;0;0;0;0;3;0;4173;0;0;0;0;4;0;5437;0;0;0;0;5;0;14625;2;0;0;0;0;0;6;0;11074;2;0;0;0;0;0;7;0;9399;0;0;0;0;8;0;9235;0;0;0;0;9;0;4943;0;0;0;0
27.11.17;19:45:00;1;957;6524;0;2;0;6450;0;0;0;0;3;0;4173;0;0;0;0;4;0;5437;0;0;0;0;5;0;14625;2;0;0;0;0;0;6;0;11074;2;0;0;0;0;0;7;0;9399;0;0;0;0;8;0;9235;0;0;0;0;9;0;4943;0;0;0;0
27.11.17;19:40:00;1;950;6445;0;2;0;6450;0;0;0;0;3;0;4173;0;0;0;0;4;0;5437;0;0;0;0;5;0;14625;2;0;0;0;0;0;6;0;11074;2;0;0;0;0;0;7;0;9399;0;0;0;0;8;0;9235;0;0;0;0;9;0;4943;0;0;0;0
27.11.17;19:35:00;1;947;6367;0;2;0;6450;0;0;0;0;3;0;4173;0;0;0;0;4;0;5437;0;0;0;0;5;0;14625;2;0;0;0;0;0;6;0;11074;2;0;0;0;0;0;7;0;9399;0;0;0;0;8;0;9235;0;0;0;0;9;0;4943;0;0;0;0
27.11.17;19:30:00;1;973;6286;0;2;0;6450;0;0;0;0;3;0;4173;0;0;0;0;4;0;5437;0;0;0;0;5;0;14625;2;0;0;0;0;0;6;0;11074;2;0;0;0;0;0;7;0;9399;0;0;0;0;8;0;9235;0;0;0;0;9;0;4943;0;0;0;0
27.11.17;19:25:00;1;967;6206;0;2;0;6450;0;0;0;0;3;0;4173;0;0;0;0;4;0;5437;0;0;0;0;5;0;14625;2;0;0;0;0;0;6;0;11074;2;0;0;0;0;0;7;0;9399;0;0;0;0;8;0;9235;0;0;0;0;9;0;4943;0;0;0;0
27.11.17;19:20:00;1;947;6125;0;2;0;6450;0;0;0;0;3;0;4173;0;0;0;0;4;0;5437;0;0;0;0;5;0;14625;2;0;0;0;0;0;6;0;11074;2;0;0;0;0;0;7;0;9399;0;0;0;0;8;0;9235;0;0;0;0;9;0;4943;0;0;0;0
27.11.17;19:15:00;1;859;6045;0;2;0;6450;0;0;0;0;3;0;4173;0;0;0;0;4;0;5437;0;0;0;0;5;0;14625;2;0;0;0;0;0;6;0;11074;2;0;0;0;0;0;7;0;9399;0;0;0;0;8;0;9235;0;0;0;0;9;0;4943;0;0;0;0
27.11.17;19:10:00;1;850;5978;0;2;0;6450;0;0;0;0;3;0;4173;0;0;0;0;4;0;5437;0;0;0;0;5;0;14625;2;0;0;0;0;0;6;0;11074;2;0;0;0;0;0;7;0;9399;0;0;0;0;8;0;9235;0;0;0;0;9;0;4943;0;0;0;0
27.11.17;19:05:00;1;827;5907;0;2;0;6450;0;0;0;0;3;0;4173;0;0;0;0;4;0;5437;0;0;0;0;5;0;14625;2;0;0;0;0;0;6;0;11074;2;0;0;0;0;0;7;0;9399;0;0;0;0;8;0;9235;0;0;0;0;9;0;4943;0;0;0;0
27.11.17;19:00:00;1;785;5841;0;2;0;6450;0;0;0;0;3;0;4173;0;0;0;0;4;0;5437;0;0;0;0;5;0;14625;2;0;0;0;0;0;6;0;11074;2;0;0;0;0;0;7;0;9399;0;0;0;0;8;0;9235;0;0;0;0;9;0;4943;0;0;0;0
27.11.17;18:55:00;1;880;5774;0;2;0;6450;0;0;0;0;3;0;4173;0;0;0;0;4;0;5437;0;0;0;0;5;0;14625;2;0;0;0;0;0;6;0;11074;2;0;0;0;0;0;7;0;9399;0;0;0;0;8;0;9235;0;0;0;0;9;0;4943;0;0;0;0
27.11.17;18:50:00;1;1236;5680;0;2;0;6450;0;0;0;0;3;0;4173;0;0;0;0;4;0;5437;0;0;0;0;5;0;14625;2;0;0;0;0;0;6;0;11074;2;0;0;0;0;0;7;0;9399;0;0;0;0;8;0;9235;0;0;0;0;9;0;4943;0;0;0;0
27.11.17;18:45:00;1;2569;5582;0;2;0;6450;0;0;0;0;3;0;4173;0;0;0;0;4;0;5437;0;0;0;0;5;0;14625;2;0;0;0;0;0;6;0;11074;2;0;0;0;0;0;7;0;9399;0;0;0;0;8;0;9235;0;0;0;0;9;0;4943;0;0;0;0
27.11.17;18:40:00;1;2376;5368;0;2;0;6450;0;0;0;0;3;0;4173;0;0;0;0;4;0;5437;0;0;0;0;5;0;14625;2;0;0;0;0;0;6;0;11074;2;0;0;0;0;0;7;0;9399;0;0;0;0;8;0;9235;0;0;0;0;9;0;4943;0;0;0;0
27.11.17;18:35:00;1;2301;5173;0;2;0;6450;0;0;0;0;3;0;4173;0;0;0;0;4;0;5437;0;0;0;0;5;0;14625;2;0;0;0;0;0;6;0;11074;2;0;0;0;0;0;7;0;9399;0;0;0;0;8;0;9235;0;0;0;0;9;0;4943;0;0;0;0
27.11.17;18:30:00;1;2326;4980;0;2;0;6450;0;0;0;0;3;0;4173;0;0;0;0;4;0;5437;0;0;0;0;5;0;14625;2;0;0;0;0;0;6;0;11074;2;0;0;0;0;0;7;0;9399;0;0;0;0;8;0;9235;0;0;0;0;9;0;4943;0;0;0;0
27.11.17;18:25:00;1;1595;4790;0;2;0;6450;0;0;0;0;3;0;4173;0;0;0;0;4;0;5437;0;0;0;0;5;0;14625;2;0;0;0;0;0;6;0;11074;2;0;0;0;0;0;7;0;9399;0;0;0;0;8;0;9235;0;0;0;0;9;0;4943;0;0;0;0
27.11.17;18:20:00;1;495;4681;0;2;0;6450;0;0;0;0;3;0;4173;0;0;0;0;4;0;5437;0;0;0;0;5;0;14625;2;0;0;0;0;0;6;0;11074;2;0;0;0;0;0;7;0;9399;0;0;0;0;8;0;9235;0;0;0;0;9;0;4943;0;0;0;0
27.11.17;18:15:00;1;544;4638;0;2;0;6450;0;0;0;0;3;0;4173;0;0;0;0;4;0;5437;0;0;0;0;5;0;14625;2;0;0;0;0;0;6;0;11074;2;0;0;0;0;0;7;0;9399;0;0;0;0;8;0;9235;0;0;0;0;9;0;4943;0;0;0;0
27.11.17;18:10:00;1;578;4592;0;2;0;6450;0;0;0;0;3;0;4173;0;0;0;0;4;0;5437;0;0;0;0;5;0;14625;2;0;0;0;0;0;6;0;11074;2;0;0;0;0;0;7;0;9399;0;0;0;0;8;0;9235;0;0;0;0;9;0;4943;0;0;0;0
27.11.17;18:05:00;1;557;4544;0;2;0;6450;0;0;0;0;3;0;4173;0;0;0;0;4;0;5437;0;0;0;0;5;0;14625;2;0;0;0;0;0;6;0;11074;2;0;0;0;0;0;7;0;9399;0;0;0;0;8;0;9235;0;0;0;0;9;0;4943;0;0;0;0
27.11.17;18:00:00;1;549;4498;0;2;0;6450;0;0;0;0;3;0;4173;0;0;0;0;4;0;5437;0;0;0;0;5;0;14625;2;0;0;0;0;0;6;0;11074;2;0;0;0;0;0;7;0;9399;0;0;0;0;8;0;9235;0;0;0;0;9;0;4943;0;0;0;0
27.11.17;17:55:00;1;518;4452;0;2;0;6450;0;0;0;0;3;0;4173;0;0;0;0;4;0;5437;0;0;0;0;5;0;14625;2;0;0;0;0;0;6;0;11074;2;0;0;0;0;0;7;0;9399;0;0;0;0;8;0;9235;0;0;0;0;9;0;4943;0;0;0;0
27.11.17;17:50:00;1;614;4408;0;2;0;6450;0;0;0;0;3;0;4173;0;0;0;0;4;0;5437;0;0;0;0;5;0;14625;2;0;0;0;0;0;6;0;11074;2;0;0;0;0;0;7;0;9399;0;0;0;0;8;0;9235;0;0;0;0;9;0;4943;0;0;0;0
27.11.17;17:45:00;1;831;4354;0;2;0;6450;0;0;0;0;3;0;4173;0;0;0;0;4;0;5437;0;0;0;0;5;0;14625;2;0;0;0;0;0;6;0;11074;2;0;0;0;0;0;7;0;9399;0;0;0;0;8;0;9235;0;0;0;0;9;0;4943;0;0;0;0
27.11.17;17:40:00;1;829;4285;0;2;0;6450;0;0;0;0;3;0;4173;0;0;0;0;4;0;5437;0;0;0;0;5;0;14625;2;0;0;0;0;0;6;0;11074;2;0;0;0;0;0;7;0;9399;0;0;0;0;8;0;9235;0;0;0;0;9;0;4943;0;0;0;0
27.11.17;17:35:00;1;802;4216;0;2;0;6450;0;0;0;0;3;0;4173;0;0;0;0;4;0;5437;0;0;0;0;5;0;14625;2;0;0;0;0;0;6;0;11074;2;0;0;0;0;0;7;0;9399;0;0;0;0;8;0;9235;0;0;0;0;9;0;4943;0;0;0;0
27.11.17;17:30:00;1;533;4150;0;2;0;6450;0;0;0;0;3;0;4173;0;0;0;0;4;0;5437;0;0;0;0;5;0;14625;2;0;0;0;0;0;6;0;11074;2;0;0;0;0;0;7;0;9399;0;0;0;0;8;0;9235;0;0;0;0;9;0;4943;0;0;0;0
27.11.17;17:25:00;1;465;4104;0;2;0;6450;0;0;0;0;3;0;4173;0;0;0;0;4;0;5437;0;0;0;0;5;0;14625;2;0;0;0;0;0;6;0;11074;2;0;0;0;0;0;7;0;9399;0;0;0;0;8;0;9235;0;0;0;0;9;0;4943;0;0;0;0
27.11.17;17:20:00;1;452;4065;0;2;0;6450;0;0;0;0;3;0;4173;0;0;0;0;4;0;5437;0;0;0;0;5;0;14625;2;0;0;0;0;0;6;0;11074;2;0;0;0;0;0;7;0;9399;0;0;0;0;8;0;9235;0;0;0;0;9;0;4943;0;0;0;0
27.11.17;17:15:00;1;499;4027;0;2;0;6450;0;0;0;0;3;0;4173;0;0;0;0;4;0;5437;0;0;0;0;5;0;14625;2;0;0;0;0;0;6;0;11074;2;0;0;0;0;0;7;0;9399;0;0;0;0;8;0;9235;0;0;0;0;9;0;4943;0;0;0;0
27.11.17;17:10:00;1;602;3984;0;2;0;6450;0;0;0;0;3;0;4173;0;0;0;0;4;0;5437;0;0;0;0;5;0;14625;2;0;0;0;0;0;6;0;11074;2;0;0;0;0;0;7;0;9399;0;0;0;0;8;0;9235;0;0;0;0;9;0;4943;0;0;0;0
27.11.17;17:05:00;1;715;3934;0;2;0;6450;0;0;0;0;3;0;4173;0;0;0;0;4;0;5437;0;0;0;0;5;0;14625;2;0;0;0;0;0;6;0;11074;2;0;0;0;0;0;7;0;9399;0;0;0;0;8;0;9235;0;0;0;0;9;0;4943;0;0;0;0
27.11.17;17:00:00;1;289;3892;0;2;0;6450;0;0;0;0;3;0;4173;0;0;0;0;4;0;5437;0;0;0;0;5;0;14625;2;0;0;0;0;0;6;0;11074;2;0;0;0;0;0;7;0;9399;0;0;0;0;8;0;9235;0;0;0;0;9;0;4943;0;0;0;0
27.11.17;16:55:00;1;196;3873;0;2;0;6450;0;0;0;0;3;0;4173;0;0;0;0;4;0;5437;0;0;0;0;5;0;14625;2;0;0;0;0;0;6;0;11074;2;0;0;0;0;0;7;0;9399;0;0;0;0;8;0;9235;0;0;0;0;9;0;4943;0;0;0;0
27.11.17;16:50:00;1;196;3856;0;2;0;6450;0;0;0;0;3;0;4173;0;0;0;0;4;0;5437;0;0;0;0;5;0;14625;2;0;0;0;0;0;6;0;11074;2;0;0;0;0;0;7;0;9399;0;0;0;0;8;0;9235;0;0;0;0;9;0;4943;0;0;0;0
27.11.17;16:45:00;1;196;3840;0;2;0;6450;0;0;0;0;3;0;4173;0;0;0;0;4;0;5437;0;0;0;0;5;0;14625;2;0;0;0;0;0;6;0;11074;2;0;0;0;0;0;7;0;9399;0;0;0;0;8;0;9235;0;0;0;0;9;0;4943;0;0;0;0
27.11.17;16:40:00;1;204;3823;0;2;0;6450;0;0;0;0;3;0;4173;0;0;0;0;4;0;5437;0;0;0;0;5;0;14625;2;0;0;0;0;0;6;0;11074;2;0;0;0;0;0;7;0;9399;0;0;0;0;8;0;9235;0;0;0;0;9;0;4943;0;0;0;0
27.11.17;16:35:00;1;210;3805;0;2;0;6450;0;0;42;1;3;0;4173;0;0;180;9;4;0;5437;0;0;0;0;5;0;14625;2;0;0;0;0;0;6;0;11074;2;0;0;0;0;0;7;0;9399;0;0;0;0;8;0;9235;0;0;0;0;9;0;4943;0;0;0;0
27.11.17;16:30:00;1;196;3788;0;2;0;6450;6;0;289;11;3;0;4173;6;0;322;14;4;0;5437;0;0;51;7;5;0;14625;2;0;0;12;11;3;6;0;11074;2;0;0;0;0;0;7;0;9399;0;0;0;0;8;0;9235;0;0;0;0;9;0;4943;0;0;0;0
27.11.17;16:25:00;1;194;3771;0;2;0;6450;6;0;332;12;3;0;4173;6;0;404;14;4;0;5437;1;0;106;10;5;0;14625;2;0;0;262;286;22;6;0;11074;0;5;2;341;143;16;7;0;9399;0;0;46;3;8;0;9235;0;0;49;3;9;0;4943;0;0;105;4
27.11.17;16:20:00;1;192;3755;0;2;0;6450;6;0;367;12;3;0;4173;6;1;443;14;4;0;5437;1;0;151;11;5;0;14625;23;0;0;403;514;22;6;0;11074;23;1;7;483;264;21;7;0;9399;6;0;303;15;8;0;9235;6;0;305;15;9;0;4943;6;0;323;11
27.11.17;16:15:00;1;215;3739;0;2;0;6450;6;0;396;12;3;0;4173;4;2;475;15;4;0;5437;1;0;190;11;5;4;14625;1;0;0;419;662;23;6;0;11074;23;5;3;264;572;22;7;0;9399;6;0;400;15;8;0;9235;6;0;403;15;9;0;4943;6;0;408;11
27.11.17;16:10:00;1;296;3719;0;2;2;6450;6;7;408;12;3;3;4173;3;14;462;15;4;0;5437;3;0;223;11;5;64;14624;1;15;16;388;616;24;6;31;11074;1;20;25;504;433;23;7;0;9399;6;1;453;16;8;0;9235;6;1;456;15;9;3;4943;6;4;470;11
27.11.17;16:05:00;1;359;3691;0;2;35;6450;6;60;372;13;3;3;4173;6;10;525;15;4;5;5437;3;5;200;12;5;115;14619;4;43;32;379;601;24;6;68;11071;4;40;36;454;356;23;7;2;9399;4;5;471;16;8;0;9235;6;0;503;15;9;0;4943;6;4;525;11
27.11.17;16:00:00;1;218;3666;0;2;81;6448;4;115;382;13;3;7;4173;6;13;546;15;4;31;5436;3;32;200;12;5;179;14609;4;74;63;379;601;24;6;102;11065;4;55;51;454;356;23;7;56;9399;4;94;378;16;8;54;9235;4;92;404;16;9;3;4943;6;7;551;12
27.11.17;15:55:00;1;193;3648;0;2;111;6441;4;141;370;13;3;10;4172;6;16;545;15;4;38;5434;3;40;200;12;5;177;14594;4;73;61;379;601;24;6;105;11056;4;48;44;454;356;23;7;39;9394;4;52;474;16;8;36;9230;4;49;480;16;9;8;4943;4;14;548;12
27.11.17;15:50:00;1;193;3632;0;2;15;6432;3;26;408;13;3;2;4172;6;8;530;15;4;3;5430;3;3;200;12;5;131;14579;4;51;41;379;601;24;6;76;11048;4;38;35;454;356;23;7;4;9391;6;7;482;16;8;3;9227;6;7;482;16;9;2;4942;6;4;527;12
27.11.17;15:45:00;1;206;3616;0;2;16;6430;6;28;403;13;3;2;4171;4;9;518;16;4;5;5430;3;5;200;12;5;136;14568;4;51;43;379;601;24;6;81;11041;4;42;40;454;356;23;7;3;9390;3;17;448;17;8;6;9226;3;17;446;16;9;1;4941;6;5;524;12
27.11.17;15:40:00;1;257;3598;0;2;51;6429;4;83;363;14;3;8;4171;3;19;511;16;4;12;5429;3;12;199;12;5;161;14557;4;64;57;379;601;24;6;98;11034;4;34;31;453;356;23;7;12;9390;6;21;455;17;8;11;9226;6;22;458;16;9;3;4941;6;11;510;12
27.11.17;15:35:00;1;257;3577;0;2;95;6425;4;127;374;14;3;23;4170;6;39;538;16;4;50;5429;3;52;198;12;5;243;14543;4;111;95;379;601;24;6;142;11026;4;77;66;454;356;23;7;68;9389;4;107;436;17;8;71;9225;4;106;389;17;9;5;4941;6;10;551;13
27.11.17;15:30:00;1;257;3555;0;2;130;6417;4;165;377;14;3;71;4168;4;107;501;17;4;78;5425;3;82;204;13;5;302;14523;4;141;116;379;601;24;6;174;11014;4;92;78;454;356;23;7;137;9383;4;168;451;17;8;137;9219;4;169;448;17;9;22;4941;6;32;548;13
27.11.17;15:25:00;1;258;3534;0;2;148;6406;4;182;376;14;3;70;4162;4;101;489;16;4;95;5418;3;98;214;13;5;315;14498;4;150;126;379;601;24;6;186;10999;4;86;74;454;356;23;7;130;9372;4;164;423;17;8;109;9204;0;139;366;13;9;57;4939;6;79;483;13
27.11.17;15:20:00;1;259;3512;0;2;36;6394;4;57;386;14;3;3;4157;6;8;532;16;4;9;5411;3;9;200;13;5;145;14472;4;56;47;379;601;24;6;88;10984;4;49;46;454;356;23;7;21;9361;4;31;463;17;8;21;9197;4;34;472;17;9;8;4935;3;16;516;13
27.11.17;15:15:00;1;301;3490;0;2;7;6391;6;13;411;14;3;2;4157;6;9;517;17;4;0;5410;3;0;230;13;5;121;14461;4;45;30;379;601;24;6;73;10977;4;42;40;454;356;23;7;4;9359;4;9;471;18;8;0;9194;6;0;501;17;9;1;4934;6;5;522;13
27.11.17;15:10:00;1;300;3465;0;2;6;6391;6;11;417;15;3;2;4157;6;8;525;17;4;1;5410;3;1;199;13;5;131;14450;4;48;38;379;601;24;6;78;10971;4;57;54;454;356;23;7;2;9359;3;13;453;18;8;1;9194;3;11;454;18;9;0;4934;6;4;522;14
27.11.17;15:05:00;1;298;3440;0;2;65;6390;4;99;369;16;3;2;4157;4;9;529;17;4;18;5410;3;19;198;13;5;196;14439;4;85;72;379;601;24;6;116;10964;4;61;58;454;362;24;7;14;9358;6;25;459;18;8;18;9194;6;29;457;18;9;0;4934;6;5;526;14
27.11.17;15:00:00;1;194;3414;0;2;193;6385;4;233;386;16;3;111;4156;4;152;514;18;4;147;5408;5;153;226;13;5;458;14422;4;228;189;400;618;25;6;330;10954;4;133;151;529;537;24;7;140;9357;4;183;461;19;8;152;9193;4;189;453;18;9;74;4934;6;99;509;15
27.11.17;14:55:00;1;201;3398;0;2;325;6369;4;367;398;16;3;199;4147;4;239;512;18;4;268;5396;5;280;234;14;5;715;14383;4;362;301;416;642;25;6;532;10925;4;251;260;575;570;24;7;299;9346;4;341;469;19;8;308;9181;4;348;460;18;9;160;4928;4;195;521;15
27.11.17;14:50:00;1;193;3381;0;2;461;6342;4;506;402;17;3;283;4130;4;333;519;19;4;384;5374;5;400;241;14;5;920;14320;4;465;388;419;676;25;6;689;10879;4;351;358;593;575;24;7;462;9321;4;507;461;19;8;466;9155;4;516;481;19;9;250;4914;4;290;522;16
27.11.17;14:45:00;1;193;3365;0;2;384;6304;4;427;402;17;3;240;4107;4;283;513;19;4;314;5342;5;327;238;14;5;750;14243;4;370;310;424;659;25;6;566;10821;4;269;280;588;572;24;7;422;9283;4;455;483;19;8;423;9116;4;471;482;19;9;231;4894;4;265;535;16
27.11.17;14:40:00;1;202;3349;0;2;293;6271;4;334;397;17;3;177;4086;4;219;517;19;4;226;5315;5;236;236;14;5;580;14182;4;292;248;393;615;25;6;451;10774;4;223;237;571;564;24;7;284;9247;4;332;487;20;8;296;9080;4;339;476;19;9;157;4874;4;190;526;16
27.11.17;14:35:00;1;239;3332;0;2;282;6246;4;321;390;18;3;172;4071;4;216;506;19;4;217;5296;5;226;236;14;5;619;14133;4;302;254;415;653;25;6;454;10737;4;210;220;589;564;24;7;286;9223;4;340;475;20;8;296;9055;4;339;464;19;9;159;4861;4;193;522;16
27.11.17;14:30:00;1;200;3312;0;2;378;6223;4;423;403;18;3;230;4057;4;275;504;19;4;311;5278;5;323;236;14;5;813;14082;4;409;342;414;655;26;6;612;10699;4;301;316;589;564;24;7;407;9199;4;454;475;20;8;402;9031;4;452;483;20;9;219;4848;4;257;517;17
27.11.17;14:25:00;1;192;3295;0;2;395;6192;4;443;403;19;3;242;4038;4;290;522;20;4;314;5252;5;327;243;15;5;848;14013;4;414;351;418;671;26;6;626;10647;4;303;317;592;572;24;7;484;9166;4;537;476;21;8;494;8998;4;540;474;20;9;262;4830;4;300;527;17
27.11.17;14:20:00;1;191;3279;0;2;417;6158;4;464;406;19;3;257;4018;4;306;519;20;4;345;5226;5;359;240;15;5;888;13934;4;448;373;414;672;26;6;663;10588;4;319;338;593;564;24;7;438;9126;4;479;473;21;8;433;8957;4;476;473;21;9;233;4808;4;271;516;17
27.11.17;14:15:00;1;234;3263;0;2;474;6123;4;522;406;20;3;296;3996;4;344;516;20;4;409;5197;5;426;242;15;5;1000;13859;4;503;415;425;676;26;6;732;10531;4;375;372;596;533;25;7;532;9089;4;583;478;22;8;537;8921;4;587;477;21;9;287;4789;4;330;521;18
27.11.17;14:10:00;1;235;3243;0;2;210;6084;4;246;369;20;3;130;3972;4;171;502;20;4;164;5163;5;171;221;15;5;458;13777;4;222;183;388;620;27;6;274;10473;4;171;141;462;369;25;7;262;9045;4;304;477;22;8;267;8876;4;312;465;21;9;98;4765;4;116;535;18
27.11.17;14:05:00;1;251;3224;0;2;212;6065;4;250;378;21;3;122;3960;4;166;512;21;4;163;5148;3;170;222;16;5;508;13741;4;243;208;396;634;27;6;379;10451;4;203;223;555;534;25;7;195;9022;4;230;458;22;8;184;8853;4;227;457;22;9;74;4756;6;96;543;19
27.11.17;14:00:00;1;193;3204;0;2;314;6047;4;357;395;23;3;192;3950;4;236;504;22;4;261;5135;5;272;233;16;5;758;13696;4;378;314;414;632;27;6;565;10418;4;270;286;590;570;25;7;316;9005;4;364;471;23;8;324;8837;4;364;465;23;9;172;4749;4;209;514;20
27.11.17;13:55:00;1;192;3188;0;2;646;6022;4;703;403;24;3;401;3934;4;456;516;23;4;562;5113;5;585;241;17;5;1379;13631;4;706;586;423;677;28;6;1028;10370;4;505;516;591;570;25;7;657;8979;4;709;474;23;8;650;8810;4;696;463;23;9;347;4735;4;392;520;21
27.11.17;13:50:00;1;195;3172;0;2;1979;5967;4;2094;423;27;3;1287;3900;4;1378;539;24;4;1018;5066;5;1060;250;17;5;3547;13506;4;1913;1569;428;708;27;6;2717;10277;4;1378;1350;606;581;25;7;2490;8924;4;2629;486;24;8;2190;8755;4;2306;476;23;9;1173;4705;4;1255;526;23